928  
ASUS41 KRLX 211210  
RWRRLX  
REGIONAL WEATHER ROUNDUP  
NATIONAL WEATHER SERVICE CHARLESTON WV  
800 AM EDT MON OCT 21 2019  
 
NOTE: "FAIR" INDICATES FEW OR NO CLOUDS BELOW 12,000 FEET WITH NO  
SIGNIFICANT WEATHER AND/OR S TO VISIBILITY
.  
 
WVZ003-211300-  
NORTHERN PANHANDLE OF WEST VIRGINIA  
 
CITY SKY/WX TMP DP RH WIND PRES REMARKS
 
WHEELING FOG 49 47 93 E3 30.00F VSB 1/4  

 
 
WVZ009-211300-  
NORTHWEST WEST VIRGINIA  
 
CITY SKY/WX TMP DP RH WIND PRES REMARKS
 
PARKERSBURG FOG 51 51 100 E3 30.02F VSB 1/4  

 
 
WVZ006-211300-  
WESTERN WEST VIRGINIA  
 
CITY SKY/WX TMP DP RH WIND PRES REMARKS
 
HUNTINGTON FAIR 53 51 93 E5 29.93F  

 
 
WVZ015-211300-  
WEST CENTRAL WEST VIRGINIA  
 
CITY SKY/WX TMP DP RH WIND PRES REMARKS
 
CHARLESTON N/A 51 50 96 NE6 29.97F FOG  

 
 
WVZ022-031-211300-  
NORTH CENTRAL WEST VIRGINIA  
 
CITY SKY/WX TMP DP RH WIND PRES REMARKS
 
MORGANTOWN FAIR 50 49 96 E3 30.03S  
CLARKSBURG FAIR 47 44 90 CALM 30.02F FOG  
BUCKHANNON FOG 48 48 100 E5 30.02F VSB 1/4  

 
 
WVZ025-035-042-045-211300-  
SOUTHERN WEST VIRGINIA  
 
CITY SKY/WX TMP DP RH WIND PRES REMARKS
 
BECKLEY FAIR 52 49 89 SE7 30.02F  
LOGAN FAIR 55 54 94 CALM 29.96F  
PINEVILLE FAIR 52 51 98 MISG 30.04S  
BLUEFIELD CLOUDY 51 51 100 VRB3 30.04F  
LEWISBURG FOG 47 47 100 NE3 30.09R VSB 1/4  

 
 
WVZ047-211300-  
NORTHERN MOUNTAINS OF WEST VIRGINIA  
 
CITY SKY/WX TMP DP RH WIND PRES REMARKS
 
ELKINS FOG 50 48 93 S3 30.05S VSB 1/4  

 
 
WVZ052-211300-  
EASTERN PANHANDLE OF WEST VIRGINIA  
 
CITY SKY/WX TMP DP RH WIND PRES REMARKS
 
MARTINSBURG CLOUDY 53 48 83 NW5 30.07R  
PETERSBURG CLOUDY 52 51 96 CALM 30.10R  

 
 
SOUTHEAST OHIO/NORTHEAST KENTUCKY  
 
CITY SKY/WX TMP DP RH WIND PRES REMARKS
 
ATHENS FOG 51 51 100 CALM 29.97S VSB<1/4  
ASHLAND N/A N/A N/A N/A MISG N/A  

 
 
 
CLICK HERE TO GO TO PREVIOUS BULLETINS.

The Nexlab WV Page
The Nexlab OH Page
The Nexlab KY Page
The Nexlab VA Page Main Text Page